Weather History for KDAY - November, 2013

Change the Weather History Date:

Thursday, November 14, 2013

  Actual Average Record
Temperature  
Mean Temperature 41 °F 44 °F  
Max Temperature 52 °F 52 °F 76 °F (1909)
Min Temperature 29 °F 35 °F 11 °F (1986)
Degree Days  
Heating Degree Days 24 21  
Month to date heating degree days 293 261  
Since 1 July heating degree days 680 708  
Cooling Degree Days 0 0  
Month to date cooling degree days 0 0  
Year to date cooling degree days 1062 891  
Moisture  
Dew Point 19 °F    
Average Humidity 48    
Maximum Humidity 69    
Minimum Humidity 26    
Precipitation  
Precipitation 0.00 in 0.12 in 1.44 in (1993)
Month to date precipitation 0.51 1.49  
Year to date precipitation 30.86 36.03  
Snow  
Snow 0.00 in 0.00 in 2.10 in (1970)
Month to date snowfall 0.9 0.2  
Since 1 July snowfall 1.9 0.6  
Since 1 September snowfall 1.9 0.6  
Snow Depth 0.00 in    
Sea Level Pressure  
Sea Level Pressure 30.26 in    
Wind  
Wind Speed 13 mph (SSW)    
Max Wind Speed 20 mph    
Max Gust Speed 25 mph    
Visibility 10 miles    
Events      
T = Trace of Precipitation, MM = Missing Value Source: NWS Daily Summary

Daily Weather History Graph

Daily Weather History Graph

Search for Another Location

Airport or City:

Trip Planner

Search our weather history database for the weather conditions in past years. The results will help you decide how hot, cold, wet, or windy it might be!

Date:

Astronomy

Nov. 14, 2013 Rise Set
Actual Time 7:20 AM EST 5:21 PM EST
Civil Twilight 6:52 AM EST 5:50 PM EST
Nautical Twilight 6:19 AM EST 6:22 PM EST
Astronomical Twilight 5:47 AM EST 6:54 PM EST
Moon 3:41 PM EST (11/14) 4:15 AM EST (11/14)
Length of Visible Light 10h 58m
Length of Day
10h 00m
Waxing Gibbous, 91% of the Moon is Illuminated
Nov 14
Waxing Gibbous
Nov 17
Full
Nov 25
Last Quarter
Dec 2
New
Dec 9
First Quarter

Hourly Weather History & Observations

Time (EST) Temp. Windchill Dew Point Humidity Pressure Visibility Wind Dir Wind Speed Gust Speed Precip Events Conditions
12:56 AM 30.9 °F 22.2 °F 19.0 °F 61% 30.37 in 10.0 mi SSW 10.4 mph - N/A   Clear
1:56 AM 30.9 °F 21.7 °F 19.9 °F 64% 30.35 in 10.0 mi SSW 11.5 mph - N/A   Clear
2:56 AM 30.0 °F 21.1 °F 19.9 °F 66% 30.35 in 10.0 mi SSW 10.4 mph - N/A   Clear
3:56 AM 30.9 °F 21.7 °F 19.9 °F 64% 30.34 in 10.0 mi SSW 11.5 mph - N/A   Clear
4:56 AM 30.0 °F 21.1 °F 19.9 °F 66% 30.33 in 10.0 mi SSW 10.4 mph - N/A   Clear
5:56 AM 30.0 °F 20.5 °F 19.9 °F 66% 30.33 in 10.0 mi SSW 11.5 mph - N/A   Clear
6:56 AM 28.9 °F 19.8 °F 19.9 °F 69% 30.33 in 10.0 mi SSW 10.4 mph - N/A   Clear
7:56 AM 30.0 °F 21.1 °F 19.9 °F 66% 30.33 in 10.0 mi South 10.4 mph - N/A   Partly Cloudy
8:56 AM 34.0 °F 24.2 °F 21.0 °F 59% 30.32 in 10.0 mi SSW 15.0 mph 20.7 mph N/A   Partly Cloudy
9:56 AM 37.9 °F 29.2 °F 21.0 °F 51% 30.32 in 10.0 mi SW 15.0 mph - N/A   Partly Cloudy
10:56 AM 42.1 °F 34.9 °F 21.0 °F 43% 30.31 in 10.0 mi SW 13.8 mph 20.7 mph N/A   Partly Cloudy
11:56 AM 45.0 °F 37.9 °F 21.0 °F 39% 30.28 in 10.0 mi SSW 16.1 mph - N/A   Clear
12:56 PM 48.0 °F - 21.0 °F 34% 30.24 in 10.0 mi SSW 15.0 mph 21.9 mph N/A   Clear
1:56 PM 50.0 °F - 21.0 °F 32% 30.21 in 10.0 mi SSW 13.8 mph - N/A   Clear
2:56 PM 52.0 °F - 18.0 °F 26% 30.19 in 10.0 mi SSW 12.7 mph 23.0 mph N/A   Partly Cloudy
3:56 PM 52.0 °F - 17.1 °F 25% 30.18 in 10.0 mi SSW 12.7 mph 21.9 mph N/A   Partly Cloudy
4:56 PM 50.0 °F - 18.0 °F 28% 30.17 in 10.0 mi South 12.7 mph - N/A   Scattered Clouds
5:56 PM 48.0 °F - 17.1 °F 29% 30.16 in 10.0 mi South 10.4 mph - N/A   Scattered Clouds
6:56 PM 46.9 °F - 18.0 °F 32% 30.17 in 10.0 mi SSW 15.0 mph - N/A   Scattered Clouds
7:56 PM 46.0 °F 39.9 °F 17.1 °F 31% 30.17 in 10.0 mi SSW 13.8 mph - N/A   Scattered Clouds
8:56 PM 45.0 °F 39.3 °F 18.0 °F 34% 30.17 in 10.0 mi SSW 11.5 mph - N/A   Partly Cloudy
9:56 PM 44.1 °F 37.4 °F 18.0 °F 35% 30.17 in 10.0 mi SSW 13.8 mph - N/A   Partly Cloudy
10:56 PM 43.0 °F 36.4 °F 19.0 °F 38% 30.17 in 10.0 mi SSW 12.7 mph - N/A   Mostly Cloudy
11:56 PM 42.1 °F 35.7 °F 19.0 °F 40% 30.16 in 10.0 mi SSW 11.5 mph - N/A   Clear